SNAP-3 JIMI

Last updated on Mon Sep 21 2026 00:03:44 GMT+0000 (Coordinated Universal Time)

1 40975U 15058M 26263.48447389 .00003833 00000+0 25748-3 0 9995 2 40975 64.7636 278.0159 0114176 18.6995 341.8265 15.03184049128543
UTC large
Height (km)
Speed (km/s)
/
Latitude / Longitude
Inclination (degrees)
Orbital Period (minutes)
Azimuth
Elevation
Range (km)
Doppler Factor

Next 0 passes for location: London (51.5072 / 0.1276)

No passes found over London.
SNAP-3 JIMI